Tracking 30995 objects as of 5-Jul-2025
HD Live streaming from Space Station
objects crossing your sky now

BREEZE-M R/B

Track BREEZE-M R/B now!


NORAD ID: 33280
Int'l Code: 2008-039C
Perigee: 4,355.7 km
Apogee: 35,873.4 km
Inclination: 22.8 °
Period: 714.9 minutes
Semi major axis: 26485 km
RCS: 8.2222 m2 (large)
Launch date: August 18, 2008
Source: Commonwealth of Independent States (former USSR) (CIS)
Launch site: TYURATAM MISSILE AND SPACE COMPLEX (TTMTR)

Note: This is a ROCKET BODY
Your satellite tracking list
Your tracking list is empty




NASA's NSSDC Master Catalog

Two Line Element Set (TLE):
1 33280U 08039C   25183.48094857 -.00000269  00000-0  00000-0 0  9998
2 33280  22.8021  58.5302 5949982 257.8632  33.2026  2.01413736124083
Source of the keplerian elements: AFSPC